Reidsville, NC

2:13 PM EST on December 15, 2017 (GMT -0500)
Reidsville

Weather History for KSIF - December, 2012

Change the Weather History Date:

Saturday, December 22, 2012

  Actual Average (KGSO) Record (KGSO)
Temperature  
Mean Temperature 41 °F -  
Max Temperature 51 °F 47 °F 73 °F (2013)
Min Temperature 30 °F 28 °F 7 °F (1989)
Degree Days  
Heating Degree Days 24    
Moisture  
Dew Point 19 °F    
Average Humidity 44    
Maximum Humidity 65    
Minimum Humidity 26    
Precipitation  
Precipitation 0.00 in - - ()
Sea Level Pressure  
Sea Level Pressure 30.00 in    
Wind  
Wind Speed 7 mph (WNW)    
Max Wind Speed 14 mph    
Max Gust Speed 21 mph    
Visibility 10 miles    
Events      
Averages and records for this station are not official NWS values.
T = Trace of Precipitation, MM = Missing Value Source: NWS Daily Summary

Daily Weather History Graph

Daily Weather History Graph

Search for Another Location

Airport or City:

Trip Planner

Search our weather history database for the weather conditions in past years. The results will help you decide how hot, cold, wet, or windy it might be!

Date:

Astronomy

Dec. 22, 2012 Rise Set
Actual Time 7:28 AM EST 5:08 PM EST
Civil Twilight 6:59 AM EST 5:37 PM EST
Nautical Twilight 6:26 AM EST 6:09 PM EST
Astronomical Twilight 5:55 AM EST 6:41 PM EST
Moon 1:20 PM EST (12/22) 2:17 AM EST (12/22)
Length of Visible Light 10h 38m
Length of Day
9h 40m
Waxing Gibbous, 73% of the Moon is Illuminated
Dec 22
Waxing Gibbous
Dec 28
Full
Jan 4
Last Quarter
Jan 11
New
Jan 18
First Quarter

Hourly Weather History & Observations

Time (EST) Temp. Windchill Dew Point Humidity Pressure Visibility Wind Dir Wind Speed Gust Speed Precip Events Conditions
12:15 AM 34.9 °F 28.3 °F 20.3 °F 55% 29.82 in 10.0 mi WNW 8.1 mph - N/A   Scattered Clouds
12:35 AM 35.6 °F 28.6 °F 21.0 °F 55% 29.83 in 10.0 mi West 9.2 mph 16.1 mph N/A   Mostly Cloudy
12:55 AM 35.8 °F 28.3 °F 21.2 °F 55% 29.83 in 10.0 mi West 10.4 mph - N/A   Overcast
1:15 AM 36.1 °F 30.6 °F 21.6 °F 56% 29.83 in 10.0 mi West 6.9 mph - N/A   Overcast
1:35 AM 36.5 °F 29.7 °F 21.4 °F 54% 29.84 in 10.0 mi West 9.2 mph 18.4 mph N/A   Overcast
1:55 AM 36.5 °F 27.8 °F 21.0 °F 54% 29.85 in 10.0 mi West 13.8 mph 20.7 mph N/A   Overcast
2:15 AM 36.5 °F 31.0 °F 20.8 °F 53% 29.86 in 10.0 mi WNW 6.9 mph 19.6 mph N/A   Overcast
2:35 AM 36.1 °F 30.6 °F 21.0 °F 54% 29.86 in 10.0 mi WNW 6.9 mph - N/A   Overcast
2:55 AM 35.8 °F 27.3 °F 20.8 °F 55% 29.87 in 10.0 mi WNW 12.7 mph 20.7 mph N/A   Scattered Clouds
3:15 AM 36.0 °F 28.0 °F 20.8 °F 54% 29.88 in 10.0 mi WNW 11.5 mph 18.4 mph N/A   Mostly Cloudy
3:35 AM 36.0 °F 30.3 °F 20.8 °F 54% 29.89 in 10.0 mi WNW 6.9 mph - N/A   Overcast
3:55 AM 36.0 °F 32.1 °F 20.5 °F 53% 29.89 in 10.0 mi NW 4.6 mph - N/A   Overcast
4:15 AM 36.1 °F 30.6 °F 19.8 °F 51% 29.90 in 10.0 mi WNW 6.9 mph - N/A   Overcast
4:35 AM 36.0 °F 31.1 °F 19.9 °F 52% 29.90 in 10.0 mi NW 5.8 mph 20.7 mph N/A   Overcast
4:55 AM 35.8 °F 29.4 °F 20.3 °F 53% 29.91 in 10.0 mi WNW 8.1 mph 16.1 mph N/A   Overcast
5:15 AM 35.6 °F 30.7 °F 20.5 °F 54% 29.92 in 10.0 mi WNW 5.8 mph - N/A   Overcast
5:35 AM 36.0 °F 32.1 °F 20.3 °F 53% 29.92 in 10.0 mi WNW 4.6 mph - N/A   Overcast
5:55 AM 35.6 °F 32.8 °F 20.8 °F 55% 29.94 in 10.0 mi WNW 3.5 mph - N/A   Overcast
6:15 AM 35.2 °F - 20.7 °F 55% 29.95 in 10.0 mi Calm Calm - N/A   Overcast
6:35 AM 35.2 °F 29.5 °F 20.3 °F 55% 29.95 in 10.0 mi NNW 6.9 mph - N/A   Mostly Cloudy
6:55 AM 35.1 °F 29.3 °F 20.1 °F 55% 29.96 in 10.0 mi NW 6.9 mph - N/A   Scattered Clouds
7:15 AM 34.5 °F 28.6 °F 19.9 °F 55% 29.98 in 10.0 mi NW 6.9 mph - N/A   Scattered Clouds
7:35 AM 34.2 °F 31.2 °F 19.4 °F 55% 29.98 in 10.0 mi NW 3.5 mph - N/A   Scattered Clouds
7:55 AM 34.3 °F 30.2 °F 19.2 °F 54% 29.99 in 10.0 mi NW 4.6 mph - N/A   Clear
8:15 AM 35.2 °F 30.3 °F 19.4 °F 53% 30.00 in 10.0 mi North 5.8 mph - N/A   Clear
8:35 AM 36.3 °F 32.5 °F 19.4 °F 50% 30.01 in 10.0 mi NNW 4.6 mph - N/A   Clear
8:55 AM 37.4 °F 32.8 °F 19.2 °F 48% 30.02 in 10.0 mi NW 5.8 mph - N/A   Clear
9:15 AM 37.9 °F 32.7 °F 19.4 °F 47% 30.03 in 10.0 mi North 6.9 mph 18.4 mph N/A   Clear
9:35 AM 39.2 °F 33.0 °F 19.2 °F 45% 30.04 in 10.0 mi NW 9.2 mph - N/A   Clear
9:55 AM 39.6 °F 34.0 °F 18.9 °F 43% 30.04 in 10.0 mi NNW 8.1 mph - N/A   Clear
10:15 AM 40.5 °F 36.5 °F 18.5 °F 41% 30.04 in 10.0 mi NNW 5.8 mph 16.1 mph N/A   Clear
10:35 AM 41.5 °F 37.1 °F 18.7 °F 40% 30.04 in 10.0 mi NNW 6.9 mph 17.3 mph N/A   Clear
10:55 AM 42.6 °F 37.2 °F 18.5 °F 38% 30.03 in 10.0 mi North 9.2 mph - N/A   Clear
11:15 AM 44.1 °F 40.1 °F 18.5 °F 36% 30.02 in 10.0 mi North 6.9 mph - N/A   Clear
11:35 AM 44.8 °F 41.6 °F 18.1 °F 34% 30.02 in 10.0 mi NNW 5.8 mph 17.3 mph N/A   Clear
11:55 AM 45.9 °F 43.6 °F 17.6 °F 32% 30.02 in 10.0 mi NW 4.6 mph - N/A   Clear
12:15 PM 47.1 °F - 19.4 °F 33% 30.01 in 10.0 mi Calm Calm - N/A   Clear
12:35 PM 46.9 °F - 19.0 °F 33% 30.01 in 10.0 mi WSW 5.8 mph - N/A   Clear
12:55 PM 47.1 °F - 18.3 °F 32% 30.00 in 10.0 mi Calm Calm - N/A   Clear
1:15 PM 47.8 °F - 17.6 °F 30% 29.98 in 10.0 mi NNW 3.5 mph - N/A   Clear
1:35 PM 49.3 °F - 17.1 °F 28% 29.98 in 10.0 mi North 6.9 mph - N/A   Clear
1:55 PM 49.8 °F - 16.2 °F 26% 29.98 in 10.0 mi North 4.6 mph - N/A   Clear
2:15 PM 50.4 °F - 16.3 °F 26% 29.98 in 10.0 mi NW 4.6 mph - N/A   Clear
2:35 PM 50.0 °F - 17.1 °F 27% 29.97 in 10.0 mi SW 3.5 mph - N/A   Clear
2:55 PM 50.7 °F - 18.1 °F 28% 29.98 in 10.0 mi SW 5.8 mph - N/A   Clear
3:15 PM 50.7 °F - 18.3 °F 28% 29.99 in 10.0 mi South 6.9 mph - N/A   Clear
3:35 PM 51.1 °F - 16.9 °F 26% 29.99 in 10.0 mi WSW 6.9 mph - N/A   Clear
3:55 PM 50.2 °F - 16.2 °F 26% 30.00 in 10.0 mi West 9.2 mph - N/A   Clear
4:15 PM 48.9 °F - 16.9 °F 28% 30.01 in 10.0 mi WSW 9.2 mph - N/A   Clear
4:35 PM 47.5 °F - 16.9 °F 30% 30.02 in 10.0 mi West 8.1 mph - N/A   Clear
4:55 PM 46.0 °F 41.9 °F 16.3 °F 30% 30.04 in 10.0 mi WSW 8.1 mph - N/A   Clear
5:15 PM 44.4 °F 39.5 °F 16.5 °F 33% 30.05 in 10.0 mi West 9.2 mph 16.1 mph N/A   Clear
5:35 PM 43.5 °F 40.1 °F 16.2 °F 33% 30.06 in 10.0 mi WNW 5.8 mph - N/A   Clear
5:55 PM 42.8 °F 39.3 °F 15.8 °F 34% 30.08 in 10.0 mi WNW 5.8 mph - N/A   Clear
6:15 PM 42.4 °F 38.1 °F 16.0 °F 34% 30.08 in 10.0 mi WNW 6.9 mph - N/A   Clear
6:35 PM 42.1 °F 36.6 °F 16.5 °F 36% 30.09 in 10.0 mi WNW 9.2 mph - N/A   Clear
6:55 PM 41.7 °F 36.7 °F 16.7 °F 36% 30.09 in 10.0 mi West 8.1 mph 16.1 mph N/A   Clear
7:15 PM 41.0 °F 35.2 °F 17.1 °F 38% 30.09 in 10.0 mi West 9.2 mph - N/A   Clear
7:35 PM 40.6 °F 35.4 °F 17.8 °F 40% 30.09 in 10.0 mi West 8.1 mph 16.1 mph N/A   Clear
7:55 PM 40.1 °F 34.1 °F 18.1 °F 41% 30.10 in 10.0 mi West 9.2 mph - N/A   Clear
8:15 PM 39.4 °F 34.5 °F 18.3 °F 43% 30.09 in 10.0 mi West 6.9 mph - N/A   Clear
8:35 PM 38.5 °F 35.0 °F 18.3 °F 44% 30.09 in 10.0 mi WSW 4.6 mph - N/A   Clear
8:55 PM 36.9 °F 31.4 °F 18.5 °F 47% 30.10 in 10.0 mi West 6.9 mph - N/A   Clear
9:15 PM 37.2 °F 32.6 °F 18.7 °F 47% 30.10 in 10.0 mi WSW 5.8 mph - N/A   Clear
9:35 PM 36.5 °F 31.8 °F 19.0 °F 49% 30.10 in 10.0 mi WSW 5.8 mph - N/A   Clear
9:55 PM 36.5 °F 32.7 °F 19.4 °F 50% 30.10 in 10.0 mi West 4.6 mph - N/A   Clear
10:15 PM 35.1 °F 31.0 °F 19.8 °F 54% 30.11 in 10.0 mi WSW 4.6 mph - N/A   Clear
10:35 PM 34.7 °F 31.8 °F 19.6 °F 54% 30.10 in 10.0 mi WSW 3.5 mph - N/A   Clear
10:55 PM 33.3 °F 28.9 °F 19.8 °F 58% 30.11 in 10.0 mi WSW 4.6 mph - N/A   Clear
11:15 PM 33.3 °F 30.2 °F 19.9 °F 58% 30.11 in 10.0 mi West 3.5 mph - N/A   Clear
11:35 PM 31.1 °F - 20.3 °F 64% 30.11 in 10.0 mi Calm Calm - N/A   Clear
11:55 PM 30.6 °F - 20.1 °F 65% 30.10 in 10.0 mi Calm Calm - N/A   Clear